Airfield :
LOGIN :

Register | Disclaimer

   EN    FR    IT 

 










Legend :    VFR   Marginal VFR   IFR   Intensive IFR   Very Intensive IFR
Visi :
Ceiling :
>= 8 km
>= 3000ft
5 to 8 km
1000 to 3000 ft
1500m to 5 km
500 to 1000 ft
800 to 1500m
200 to 500 ft
< 800m
< 200 ft
Symbols :   Thunderstorms  Fog  Heavy snow  Heavy precipitations  Wind > 20 kt
SIGMETs :     Misc.  Thunderstorms  Icing  Turbulence  Mountain Waves  Volcanic Ashes







- Airport Elevation : 1367 ft
- IATA code : FDH


EDNY - Friedrichshafen

CURRENT METAR :
  • 220850Z 27003KT 220V330 9999 FEW019 14/08 Q1025

EXPIRED METARs :
  • 220820Z VRB01KT 9999 FEW021 14/09 Q1025
  • 220750Z VRB01KT CAVOK 13/09 Q1025
  • 220620Z AUTO 05003KT 320V090 9999 // NCD 10/09 Q1024

TAF TAF EDNY
Valid from the 22 at 06:00 until the 23 at 06:00 UTC


220500Z 2206/2306 VRB03KT 9999 FEW040
BECMG 2208/2210 24005KT
BECMG 2216/2218 VRB03KT
BECMG 2223/2301 25007KT
PROB40
TEMPO 2302/2306 RA
No reported NOTAMs for that airfield.



MET'MAP, your aeronautical weather chart ! - Copyright ORBIFLY December 2007 - Disclaimer

ORBIFLY MET'MAP TEAM :

Programming & Development : Alexandra Zaïnal
Concept & Development : Baudouin d'Aumeries
Co-Development & Prog : Marc-Olivier Méhu
Technical & hardware support : Manuel Goepfert

Contact : metmap@orbifly.com




SOURCES & CREDITS :

   NOAA